This is the latest recevied weather packets stored in our database for station/object HB9GFF-10. If no packets are shown the sender has not sent any weather packets the latest 10 day(s).
| Time | Temp. | Humidity | Pressure | Rain* | Wind** | Luminosity | Snow |
|---|---|---|---|---|---|---|---|
| 1777456984 | 18.89° C | 50% | 955 hPa | - | - | - | - |
| 1777456919 | 18.33° C | 48% | 956 hPa | - | - | - | - |
| 1777456853 | 18.33° C | 50% | 956 hPa | - | - | - | - |
| 1777456788 | 18.89° C | 53% | 956 hPa | - | - | - | - |
| 1777456722 | 18.89° C | 48% | 956 hPa | - | - | - | - |
| 1777456657 | 18.89° C | 49% | 956 hPa | - | - | - | - |
| 1777456592 | 18.33° C | 48% | 956 hPa | - | - | - | - |
| 1777456526 | 18.89° C | 49% | 956 hPa | - | - | - | - |
| 1777456461 | 18.89° C | 48% | 956 hPa | - | - | - | - |
| 1777456395 | 18.89° C | 52% | 955 hPa | - | - | - | - |
| 1777456330 | 18.89° C | 51% | 955 hPa | - | - | - | - |
| 1777456264 | 19.44° C | 48% | 955 hPa | - | - | - | - |
| 1777456199 | 20° C | 49% | 955 hPa | - | - | - | - |
| 1777456134 | 20° C | 57% | 955 hPa | - | - | - | - |
| 1777456068 | 19.44° C | 51% | 955 hPa | - | - | - | - |
| 1777456003 | 18.89° C | 49% | 955 hPa | - | - | - | - |
| 1777455937 | 19.44° C | 52% | 955 hPa | - | - | - | - |
| 1777455872 | 18.89° C | 52% | 955 hPa | - | - | - | - |
| 1777455806 | 18.89° C | 50% | 955 hPa | - | - | - | - |
| 1777455741 | 19.44° C | 54% | 955 hPa | - | - | - | - |
| 1777455676 | 19.44° C | 52% | 955 hPa | - | - | - | - |
| 1777455610 | 20° C | 51% | 955 hPa | - | - | - | - |
| 1777455545 | 19.44° C | 51% | 955 hPa | - | - | - | - |
| 1777455480 | 20° C | 54% | 956 hPa | - | - | - | - |
| 1777455414 | 19.44° C | 48% | 956 hPa | - | - | - | - |
* Rain since midnight (hover to see other rain measurements)
** Current wind speed in m/s (hover to see current wind gust speed)